Back to catalog

STARLINK-36742

AliveCommunicationsVLEO
NORAD 67907·PAYLOAD·🇺🇸 United States

Launched Feb 22, 2026 from Vandenberg Space Force Base

Loading…

Next Passes (next 24 hours)

TLE

FreshSource: CelesTrak SupGP

Epoch: Sep 15, 2026, 03:49 UTC

1 67907C 26036D   26258.15951389 -.00023136  00000+0 -83840-3 0  2580
2 67907  42.9996 255.5202 0001346 268.5842 173.5197 15.27573946    13

Track STARLINK-36742 in real time with AllMySat

Download on the App Store